Location: Allie Creek
(37.5926°N, 89.8526°W)
Time: 15:11:33
(UTC+00:00)

SL-16 R/B - Pass Details

Date: 03 May 2024
Orbit: 841 x 845 km, 71.0° (Epoch: 25 May)

Event Time Altitude Azimuth Distance (km) Brightness Sun altitude
Rises 02:36:12 0° 210° (SSW) 3,384 5.3 -18.9°
Reaches altitude 10° 02:38:40 10° 214° (SW) 2,454 4.6 -19.3°
Maximum altitude 02:44:14 61° 294° (WNW) 953 2.7 -20.1°
Drops below altitude 10° 02:49:51 10° 15° (NNE) 2,471 4.9 -21.0°
Sets 02:52:20 0° 19° (NNE) 3,410 5.7 -21.3°
